Location: Mentone
(34.5413°N, 85.5351°W)
Time: 02:00:15
(UTC-05:00)

ATLAS 5 CENTAUR R/B - Visible Passes

Search period start: 03 September 2014 00:00
Search period end: 13 September 2014 00:00
Orbit: 718 x 945 km, 63.4° (Epoch: 01 September)

Date Brightness Start Highest point End Pass type
(mag) Time Alt. Az. Time Alt. Az. Time Alt. Az.
08 Sep 4.9 05:50:13 10° N 05:54:09 18° NE 05:58:08 10° E visible
09 Sep 5.0 05:31:49 10° N 05:35:34 17° NE 05:39:24 10° E visible
10 Sep 5.0 05:13:25 10° N 05:17:00 16° NE 05:20:39 10° E visible
11 Sep 5.0 04:55:01 10° N 04:58:25 15° NE 05:01:52 10° ENE visible
12 Sep 5.1 04:36:38 10° N 04:39:50 15° NE 04:43:05 10° ENE visible
12 Sep 2.4 21:05:58 10° SSW 21:09:45 51° SW 21:09:45 51° SW visible
